Hourly Weather Holubivshchyna

Today, 13 April, Tuesday

Time Temperature Precipitation Wind Pressure Humidity
00:00 +11°C° 0 mm 1 mps 750 mmHg 87%
01:00 +11°C° 0 mm 1 mps 750 mmHg 88%
02:00 +11°C° 0 mm 1 mps 750 mmHg 89%
03:00 +9°C° 0 mm 2 mps 750 mmHg 90%
04:00 +9°C° 0 mm 2 mps 751 mmHg 91%
05:00 +9°C° 0 mm 2 mps 751 mmHg 91%
06:00 +10°C° 0 mm 3 mps 751 mmHg 90%
07:00 +10°C° 0 mm 3 mps 751 mmHg 89%
08:00 +10°C° 0 mm 2 mps 751 mmHg 88%
09:00 +11°C° 0 mm 3 mps 751 mmHg 84%
10:00 +12°C° 0 mm 3 mps 751 mmHg 81%
11:00 +12°C° 0 mm 3 mps 751 mmHg 78%
12:00 +12°C° 0 mm 3 mps 751 mmHg 78%
13:00 +12°C° 0 mm 3 mps 750 mmHg 78%
14:00 +13°C° 0 mm 2 mps 750 mmHg 78%
15:00 +13°C° 0 mm 2 mps 750 mmHg 78%
16:00 +13°C° 0 mm 2 mps 750 mmHg 79%
17:00 +13°C° 0 mm 2 mps 749 mmHg 79%
18:00 +12°C° 0 mm 2 mps 750 mmHg 82%
19:00 +12°C° 0 mm 2 mps 750 mmHg 84%
20:00 +10°C° 0 mm 2 mps 750 mmHg 86%
21:00 +10°C° 0 mm 2 mps 749 mmHg 87%
22:00 +10°C° 0 mm 2 mps 749 mmHg 88%
23:00 +9°C° 0 mm 2 mps 749 mmHg 89%

Tomorrow, 14 April, Wednesday

Time Temperature Precipitation Wind Pressure Humidity
00:00 +9°C° 0 mm 2 mps 749 mmHg 89%
01:00 +9°C° 0 mm 2 mps 749 mmHg 89%
02:00 +9°C° 0 mm 2 mps 749 mmHg 89%
03:00 +9°C° 0 mm 2 mps 749 mmHg 90%
04:00 +8°C° 0 mm 2 mps 748 mmHg 90%
05:00 +8°C° 0 mm 2 mps 748 mmHg 90%
06:00 +9°C° 0 mm 2 mps 748 mmHg 88%
07:00 +9°C° 0 mm 2 mps 748 mmHg 86%
08:00 +10°C° 0 mm 2 mps 748 mmHg 85%
09:00 +12°C° 0 mm 2 mps 748 mmHg 79%
10:00 +13°C° 0 mm 2 mps 748 mmHg 73%
11:00 +14°C° 0 mm 2 mps 748 mmHg 67%
12:00 +13°C° 0.2 mm 3 mps 748 mmHg 66%
13:00 +13°C° 0.2 mm 3 mps 747 mmHg 66%
14:00 +13°C° 0.2 mm 3 mps 747 mmHg 65%
15:00 +13°C° 0.1 mm 3 mps 747 mmHg 66%
16:00 +13°C° 0.1 mm 3 mps 747 mmHg 68%
17:00 +14°C° 0.1 mm 2 mps 746 mmHg 69%
18:00 +12°C° 0.1 mm 2 mps 747 mmHg 74%
19:00 +10°C° 0.1 mm 2 mps 747 mmHg 80%
20:00 +9°C° 0.1 mm 2 mps 747 mmHg 85%
21:00 +9°C° 0 mm 2 mps 747 mmHg 85%
22:00 +9°C° 0 mm 2 mps 746 mmHg 85%
23:00 +9°C° 0 mm 2 mps 746 mmHg 85%

Day after tomorrow, 15 April, Thursday

Time Temperature Precipitation Wind Pressure Humidity
00:00 +8°C° 0 mm 2 mps 746 mmHg 85%
01:00 +8°C° 0 mm 2 mps 746 mmHg 85%
02:00 +9°C° 0 mm 1 mps 746 mmHg 86%
03:00 +8°C° 0 mm 2 mps 746 mmHg 85%
04:00 +8°C° 0 mm 2 mps 746 mmHg 85%
05:00 +8°C° 0 mm 2 mps 746 mmHg 85%
06:00 +9°C° 0 mm 2 mps 746 mmHg 82%
07:00 +10°C° 0 mm 2 mps 746 mmHg 79%
08:00 +12°C° 0 mm 2 mps 746 mmHg 76%
09:00 +12°C° 0.2 mm 3 mps 746 mmHg 71%
10:00 +13°C° 0.2 mm 3 mps 745 mmHg 66%
11:00 +14°C° 0.2 mm 3 mps 745 mmHg 60%
12:00 +14°C° 0.3 mm 3 mps 745 mmHg 59%
13:00 +14°C° 0.3 mm 3 mps 745 mmHg 57%
14:00 +16°C° 0.3 mm 3 mps 745 mmHg 56%
15:00 +14°C° 0.3 mm 3 mps 744 mmHg 60%
16:00 +14°C° 0.3 mm 3 mps 744 mmHg 64%
17:00 +13°C° 0.3 mm 4 mps 744 mmHg 68%
18:00 +12°C° 0.1 mm 3 mps 744 mmHg 73%
19:00 +11°C° 0.1 mm 3 mps 744 mmHg 79%
20:00 +10°C° 0.1 mm 3 mps 744 mmHg 84%
21:00 +10°C° 0 mm 3 mps 744 mmHg 85%
22:00 +9°C° 0 mm 3 mps 744 mmHg 87%
23:00 +9°C° 0 mm 3 mps 744 mmHg 88%

16 April, Friday

Time Temperature Precipitation Wind Pressure Humidity
00:00 +9°C° 0 mm 3 mps 744 mmHg 90%
01:00 +8°C° 0 mm 3 mps 744 mmHg 91%
02:00 +8°C° 0 mm 3 mps 744 mmHg 92%
03:00 +8°C° 0.1 mm 3 mps 744 mmHg 93%
04:00 +8°C° 0.1 mm 3 mps 744 mmHg 94%
05:00 +8°C° 0.1 mm 2 mps 744 mmHg 95%
06:00 +8°C° 0.2 mm 3 mps 745 mmHg 93%
07:00 +8°C° 0.2 mm 3 mps 745 mmHg 90%
08:00 +9°C° 0.2 mm 3 mps 745 mmHg 88%
09:00 +10°C° 0.1 mm 3 mps 745 mmHg 82%
10:00 +10°C° 0.1 mm 3 mps 745 mmHg 77%
11:00 +11°C° 0.1 mm 3 mps 745 mmHg 71%
12:00 +11°C° 0.1 mm 4 mps 745 mmHg 66%
13:00 +12°C° 0.1 mm 4 mps 746 mmHg 61%
14:00 +12°C° 0.1 mm 4 mps 746 mmHg 56%
15:00 +12°C° 0 mm 4 mps 746 mmHg 57%
16:00 +12°C° 0 mm 4 mps 746 mmHg 58%
17:00 +11°C° 0 mm 3 mps 747 mmHg 59%
18:00 +10°C° 0 mm 3 mps 747 mmHg 64%
19:00 +9°C° 0 mm 2 mps 747 mmHg 69%
20:00 +7°C° 0 mm 2 mps 748 mmHg 73%
21:00 +7°C° 0 mm 2 mps 748 mmHg 74%
22:00 +8°C° 0 mm 1 mps 748 mmHg 74%
23:00 +8°C° 0 mm 1 mps 748 mmHg 74%

17 April, Saturday

Time Temperature Precipitation Wind Pressure Humidity
00:00 +7°C° 0 mm 1 mps 749 mmHg 75%
01:00 +7°C° 0 mm 1 mps 749 mmHg 76%
02:00 +7°C° 0 mm 1 mps 749 mmHg 77%
03:00 +7°C° 0 mm 1 mps 749 mmHg 77%
04:00 +7°C° 0 mm 1 mps 749 mmHg 77%
05:00 +6°C° 0 mm 1 mps 749 mmHg 78%
06:00 +7°C° 0 mm 1 mps 749 mmHg 76%
07:00 +7°C° 0 mm 2 mps 750 mmHg 75%
08:00 +8°C° 0 mm 2 mps 750 mmHg 73%
09:00 +8°C° 0.2 mm 3 mps 750 mmHg 78%
10:00 +8°C° 0.2 mm 3 mps 750 mmHg 84%
11:00 +8°C° 0.2 mm 3 mps 750 mmHg 89%
12:00 +8°C° 0.1 mm 4 mps 750 mmHg 87%
13:00 +9°C° 0.1 mm 5 mps 750 mmHg 85%
14:00 +9°C° 0.1 mm 6 mps 750 mmHg 84%
15:00 +9°C° 0.1 mm 6 mps 750 mmHg 83%
16:00 +9°C° 0.1 mm 6 mps 751 mmHg 82%
17:00 +9°C° 0.1 mm 7 mps 751 mmHg 81%
18:00 +9°C° 0 mm 7 mps 751 mmHg 80%
19:00 +9°C° 0 mm 7 mps 751 mmHg 79%
20:00 +9°C° 0 mm 7 mps 752 mmHg 78%
21:00 +9°C° 0.1 mm 6 mps 752 mmHg 79%
22:00 +8°C° 0.1 mm 6 mps 752 mmHg 79%
23:00 +8°C° 0.1 mm 5 mps 753 mmHg 79%

18 April, Sunday

Time Temperature Precipitation Wind Pressure Humidity
00:00 +8°C° 0.1 mm 5 mps 753 mmHg 79%
01:00 +7°C° 0.1 mm 5 mps 753 mmHg 80%
02:00 +7°C° 0.1 mm 5 mps 754 mmHg 80%
03:00 +6°C° 0 mm 5 mps 754 mmHg 79%
04:00 +6°C° 0 mm 5 mps 754 mmHg 78%
05:00 +6°C° 0 mm 5 mps 755 mmHg 77%
06:00 +6°C° 0 mm 5 mps 755 mmHg 75%
07:00 +6°C° 0 mm 5 mps 755 mmHg 74%
08:00 +7°C° 0 mm 5 mps 756 mmHg 73%
09:00 +7°C° 0 mm 5 mps 756 mmHg 72%
10:00 +8°C° 0 mm 5 mps 756 mmHg 71%
11:00 +8°C° 0 mm 5 mps 757 mmHg 71%
12:00 +9°C° 0 mm 5 mps 757 mmHg 68%
13:00 +10°C° 0 mm 5 mps 757 mmHg 65%
14:00 +12°C° 0 mm 4 mps 757 mmHg 62%
15:00 +11°C° 0 mm 4 mps 757 mmHg 64%
16:00 +11°C° 0 mm 3 mps 757 mmHg 65%
17:00 +11°C° 0 mm 3 mps 757 mmHg 67%
18:00 +10°C° 0 mm 3 mps 757 mmHg 67%
19:00 +10°C° 0 mm 3 mps 757 mmHg 67%
20:00 +9°C° 0 mm 3 mps 757 mmHg 68%
21:00 +8°C° 0 mm 3 mps 757 mmHg 69%
22:00 +8°C° 0 mm 3 mps 757 mmHg 70%
23:00 +7°C° 0 mm 3 mps 758 mmHg 72%
Show more